Skip Page Navigation
NASA JPL Caltech
NASA Logo - Jet Propulsion Laboratory + View the NASA Portal
+ Center for Near-Earth Object Studies
JPL Home Earth Solar System Stars & Galaxies Technology
JPL Solar System Dynamics
BODIES ORBITS EPHEMERIDES TOOLS PHYSICAL DATA DISCOVERY FAQ SITE MAP
IMPORTANT: The SSD Announcement email list is now available. Major changes are coming in the near future, including possible hostname and/or URL changes. To be notified of such changes, subscribe to this email list.

Please visit this page for more details.


JPL Small-Body Database Browser
Search: [ help ]  
437096 (2012 UZ88)
Classification: Main-belt Asteroid          SPK-ID: 2437096
Ephemeris | Orbit Diagram | Orbital Elements | Mission Design | Physical Parameters | Discovery Circumstances | Close-Approach Data ]

[ show orbit diagram ]
Orbital Elements at Epoch 2458600.5 (2019-Apr-27.0) TDB
Reference: JPL 14 (heliocentric ecliptic J2000)
 Element Value Uncertainty (1-sigma)   Units 
e .09073682398923388 1.04e-07  
a 3.070340958983576 1.0882e-07 au
q 2.791747971801347 2.9337e-07 au
i 21.6834149002643 1.9953e-05 deg
node 230.5004705060626 2.4624e-05 deg
peri 53.07212251900637 0.00013489 deg
M 196.3755506054372 0.00013218 deg
tp 2459493.649241145146
(2021-Oct-06.14924115)
0.00071239 TDB
period 1965.071405905291
5.38
0.00010447
2.86e-07
d
yr
n .1831994496068458 9.7391e-09 deg/d
Q 3.348933946165804 1.1869e-07 au
  Orbit Determination Parameters
   # obs. used (total)      126  
   data-arc span      4117 days (11.27 yr)  
   first obs. used      2006-09-17  
   last obs. used      2017-12-25  
   planetary ephem.      DE431  
   SB-pert. ephem.      SB431-N16  
   condition code      0  
   norm. resid. RMS      .51637  
   source      ORB  
   producer      Otto Matic  
   solution date      2018-Oct-04 12:13:51  

Additional Information
 Earth MOID = 1.8221 au 
 Jupiter MOID = 1.77338 au 
 T_jup = 3.116 
[ hide covariance matrix ]
Orbital Elements at Epoch 2457038.5 (2015-Jan-16.0) TDB
Reference: JPL 14 (heliocentric ecliptic J2000)
 Element Value Uncertainty (1-sigma)   Units 
e .08973231565832779 1.0483e-07  
q 2.794268846827945 2.9536e-07 au
tp 2457526.451328826363
(2016-May-17.95132883)
0.00074288 TDB
node 230.5179489620345 2.4627e-05 deg
peri 52.71758300668375 0.00013609 deg
i 21.68215682397176 1.9954e-05 deg
  Orbit Determination Parameters
   # obs. used (total)      126  
   data-arc span      4117 days (11.27 yr)  
   first obs. used      2006-09-17  
   last obs. used      2017-12-25  
   planetary ephem.      DE431  
   SB-pert. ephem.      SB431-N16  
   condition code      0  
   norm. resid. RMS      .51637  
   source      ORB  
   producer      Otto Matic  
   solution date      2018-Oct-04 12:13:51  

Additional Information
 Jupiter MOID = 1.77338 au 
 T_jup = 3.116 
Orbit Covariance (6×6)
  e q tp node peri i
e 1.099028079252523E-14 -2.949272178696167E-14 -4.671951661312906E-11 4.771626996978995E-14 -8.77569713289064E-12 1.13604354837853E-14
q -2.949272178696167E-14 8.723500504550379E-14 1.218613461634823E-10 -1.376772078412637E-13 2.258022521459825E-11 1.243095467181617E-14
tp -4.671951661312906E-11 1.218613461634823E-10 5.518699326252375E-7 -4.690864880102901E-10 9.941389370713164E-8 1.429612413428368E-10
node 4.771626996978995E-14 -1.376772078412637E-13 -4.690864880102901E-10 6.06498249633274E-10 -6.475484736248107E-10 -2.262513992895915E-10
peri -8.77569713289064E-12 2.258022521459825E-11 9.941389370713164E-8 -6.475484736248107E-10 1.851999666465846E-8 2.342803542544075E-10
i 1.13604354837853E-14 1.243095467181617E-14 1.429612413428368E-10 -2.262513992895915E-10 2.342803542544075E-10 3.981501948661542E-10

Ephemeris | Orbit Diagram | Orbital Elements | Mission Design | Physical Parameters | Discovery Circumstances | Close-Approach Data ]

Physical Parameter Table
Parameter Symbol Value Units Sigma Reference Notes
absolute magnitude H 15.5   n/a MPO437695  
diameter diameter 5.882 km 0.480 urn:nasa:pds:neowise_diameters_albedos::2.0[mainbelt] (http://adsabs.harvard.edu/abs/2011ApJ...741...68M)  
geometric albedo albedo 0.082   0.032 urn:nasa:pds:neowise_diameters_albedos::2.0[mainbelt] (http://adsabs.harvard.edu/abs/2012ApJ...759L...8M)  

437096 (2012 UZ88)          Discovered 2010-Feb-16 by WISE at WISE
Reference: Last Updated: 2015-06-04

[ show close-approach data ]
Alternate Designations
 2012 UZ88 = 2010 DO14 = 2010 PF43 
Ephemeris | Orbit Diagram | Orbital Elements | Mission Design | Physical Parameters | Discovery Circumstances | Close-Approach Data ]
ABOUT SSD CREDITS/AWARDS PRIVACY/COPYRIGHT GLOSSARY LINKS
FirstGov 2020-Jan-26 06:12 UT
(server date/time)  
NASA Home Page
Site Manager:   Ryan S. Park
Webmaster  Alan B. Chamberlin